EW6420 Weather Reports


Display with metric or nautical units.
time (UTC)temp
F
wind
direction
speed
MPH
gust
MPH
rain 1hr
in
rain 24hr
in
rain mn
in
humidity
%
barometer
mb
20260510151503 53 105 0.0 2.0 0.00 0.00 0.00 83 1017.2
20260510150006 52 96 0.0 2.0 0.00 0.00 0.00 85 1017.4
20260510144502 52 96 0.0 1.0 0.00 0.00 0.00 86 1017.4
20260510143004 51 96 0.0 2.0 0.00 0.00 0.00 86 1017.2
20260510140005 51 96 0.0 0.0 0.00 0.00 0.00 89 1016.8
20260510134501 51 96 0.0 0.0 0.00 0.00 0.00 89 1016.6
20260510133002 50 96 0.0 0.0 0.00 0.00 0.00 88 1016.9
20260510131502 50 96 0.0 0.0 0.00 0.00 0.00 87 1017.4
20260510130005 50 96 0.0 0.0 0.00 0.00 0.00 87 1017.3
20260510123004 50 96 0.0 0.0 0.00 0.00 0.00 86 1017.1
20260510121503 50 96 0.0 0.0 0.00 0.00 0.00 86 1017.0
20260510120004 50 96 0.0 0.0 0.00 0.00 0.00 86 1016.9
20260510114502 50 96 0.0 0.0 0.00 0.00 0.00 86 1016.9
20260510110005 50 96 0.0 0.0 0.00 0.00 0.00 84 1017.0
20260510104503 51 96 0.0 0.0 0.00 0.00 0.00 84 1016.7
20260510101502 51 96 0.0 0.0 0.00 0.00 0.00 83 1016.5
20260510100005 51 96 0.0 0.0 0.00 0.00 0.00 83 1016.3
20260510093004 51 96 0.0 0.0 0.00 0.00 0.00 82 1016.0
20260510091504 52 96 0.0 0.0 0.00 0.00 0.00 82 1015.9
20260510090004 52 96 0.0 0.0 0.00 0.00 0.00 81 1015.8
20260510084503 53 96 0.0 0.0 0.00 0.00 0.00 80 1015.8
20260510083002 53 96 0.0 0.0 0.00 0.00 0.00 80 1015.5
20260510081502 54 96 0.0 0.0 0.00 0.00 0.00 78 1015.5
20260510080006 54 96 0.0 0.0 0.00 0.00 0.00 78 1015.6
20260510074505 54 96 0.0 0.0 0.00 0.00 0.00 77 1015.4
20260510073006 55 96 0.0 0.0 0.00 0.00 0.00 76 1015.5
20260510071504 55 96 0.0 0.0 0.00 0.00 0.00 75 1015.6
20260510070008 56 96 0.0 0.0 0.00 0.00 0.00 74 1015.6
20260510064504 56 96 0.0 0.0 0.00 0.00 0.00 73 1015.7
20260510063005 57 96 0.0 0.0 0.00 0.00 0.00 72 1015.8
20260510061504 57 96 0.0 0.0 0.00 0.00 0.00 72 1015.7
20260510060007 58 96 0.0 0.0 0.00 0.00 0.00 71 1015.7
20260510054505 58 96 0.0 0.0 0.00 0.00 0.00 70 1015.6
20260510053005 59 96 0.0 0.0 0.00 0.00 0.00 69 1015.7
20260510051504 59 96 0.0 0.0 0.00 0.00 0.00 67 1015.6
20260510050008 60 96 0.0 0.0 0.00 0.00 0.00 66 1015.6
20260510044504 60 96 0.0 0.0 0.00 0.00 0.00 65 1015.7
20260510040006 62 96 0.0 0.0 0.00 0.00 0.00 62 1015.4
20260510030006 65 96 0.0 0.0 0.00 0.00 0.00 56 1015.4
20260510024505 65 96 0.0 0.0 0.00 0.00 0.00 54 1015.5
20260510023004 66 96 0.0 0.0 0.00 0.00 0.00 54 1015.8
20260510021505 66 96 0.0 1.0 0.00 0.00 0.00 53 1015.8
20260510020005 67 96 0.0 0.0 0.00 0.00 0.00 52 1016.0
20260510014505 67 96 0.0 2.0 0.00 0.00 0.00 52 1016.1
20260510013005 67 96 0.0 2.0 0.00 0.00 0.00 52 1016.5
20260510010006 67 83 0.0 2.0 0.00 0.00 0.00 52 1016.6
20260510004504 67 83 0.0 2.0 0.00 0.00 0.00 52 1016.6
20260510003005 67 83 0.0 2.0 0.00 0.00 0.00 53 1016.9
20260510000005 67 81 0.0 2.0 0.00 0.00 0.00 54 1017.1
20260509234505 67 81 0.0 2.0 0.00 0.00 0.00 54 1017.4
20260509233004 68 81 1.0 3.0 0.00 0.00 0.00 52 1017.3
20260509231502 68 98 0.0 2.0 0.00 0.00 0.00 53 1017.6
20260509230006 67 72 0.0 2.0 0.00 0.00 0.00 53 1017.7
20260509224504 67 104 0.0 2.0 0.00 0.00 0.00 53 1018.1
20260509223005 67 79 0.0 2.0 0.00 0.00 0.00 55 1018.2
20260509220007 67 104 1.0 3.0 0.00 0.00 0.00 56 1018.3
20260509214504 66 92 0.0 2.0 0.00 0.00 0.00 57 1018.3
20260509211504 66 84 1.0 3.0 0.00 0.00 0.00 58 1018.5
20260509210008 66 81 0.0 2.0 0.00 0.00 0.00 61 1018.7
20260509204502 65 64 1.0 4.0 0.00 0.00 0.00 60 1018.7
20260509203002 65 294 0.0 2.0 0.00 0.00 0.00 61 1018.9
20260509201503 65 93 1.0 2.0 0.00 0.00 0.00 61 1019.0
20260509200008 65 59 0.0 3.0 0.00 0.00 0.00 62 1019.2
20260509193005 64 102 0.0 2.0 0.00 0.00 0.00 65 1019.6
20260509191504 63 94 0.0 2.0 0.00 0.00 0.00 65 1019.8
20260509190006 63 144 0.0 2.0 0.00 0.00 0.00 64 1019.8
20260509184503 62 148 0.0 2.0 0.00 0.00 0.00 65 1020.0
20260509183002 62 88 1.0 3.0 0.00 0.00 0.00 64 1020.1
20260509181502 61 85 0.0 2.0 0.00 0.00 0.00 65 1020.1
20260509180006 61 112 0.0 2.0 0.00 0.00 0.00 66 1020.1
20260509171503 60 114 0.0 2.0 0.00 0.00 0.00 67 1020.4
20260509170006 59 107 0.0 2.0 0.00 0.00 0.00 68 1020.4
20260509163005 58 11 0.0 2.0 0.00 0.00 0.00 73 1020.7
20260509160005 57 102 1.0 3.0 0.00 0.00 0.00 74 1021.0
20260509154504 55 166 0.0 2.0 0.00 0.00 0.00 77 1021.3
20260509153003 54 66 0.0 2.0 0.00 0.00 0.00 81 1021.3